GEFSMA_500_meanwind_192.txt.gz
Wind_Speed
5 5 4 4 3 3 3 3 3 4 4 5 6 7 8 8 8 8 9 9 8 8 8 9 9 9 10 10 11 11 11 12 12 12 13 13 14 14 14 13 13 12 12
6 5 4 4 3 3 3 3 3 3 4 4 5 6 7 8 8 7 8 9 8 8 8 9 9 8 8 10 10 10 10 11 12 12 13 13 14 15 16 15 13 13 12
6 5 4 4 3 3 3 3 3 3 3 2 3 4 5 6 7 7 7 7 7 7 8 7 7 7 8 10 11 10 10 11 11 11 12 12 12 13 14 14 13 13 13
5 5 5 4 4 4 4 3 3 3 2 2 2 2 3 5 5 6 6 6 6 6 7 7 8 8 7 8 9 10 10 10 9 9 10 10 10 11 12 13 13 13 13
5 5 5 4 4 4 4 3 3 2 2 2 1 1 2 3 3 4 5 5 5 5 6 7 7 8 7 7 8 9 10 9 10 10 9 9 9 9 10 12 12 13 13
5 5 5 4 4 3 4 4 3 3 2 2 2 2 2 3 3 3 4 4 5 6 6 6 6 7 7 8 8 8 9 10 9 10 9 9 9 9 9 11 12 12 12
5 5 4 4 4 4 3 3 3 3 3 3 2 2 2 3 3 3 4 5 5 5 5 6 6 6 7 8 7 8 8 9 9 8 9 9 9 9 9 10 11 12 12
5 5 4 4 4 4 3 3 3 3 3 3 3 2 3 3 3 3 4 5 5 5 5 6 6 7 7 8 8 8 8 9 9 9 8 8 8 8 9 10 11 12 12
4 5 5 4 4 4 3 3 3 3 3 3 2 3 3 2 2 2 3 3 4 5 5 6 6 6 7 7 7 7 7 8 9 8 8 9 9 9 10 11 12 12 13
4 4 5 4 4 4 3 3 3 3 3 3 3 3 3 3 3 3 3 4 4 5 6 6 6 6 7 7 7 7 8 8 9 9 9 10 10 11 11 11 12 13 14
3 4 4 4 4 4 3 3 3 3 3 4 4 4 4 4 5 5 5 5 5 6 6 7 6 7 7 8 8 9 9 9 10 11 11 11 11 12 13 13 14 15 16
3 4 4 4 4 4 4 4 3 3 4 4 4 5 5 6 6 6 6 6 7 7 7 7 7 8 9 9 10 10 10 10 11 12 12 13 13 14 15 16 17 18 18
3 3 4 4 4 4 3 4 4 4 4 5 5 5 6 6 6 6 7 7 7 8 8 8 9 9 10 10 11 11 11 12 12 13 14 15 16 16 16 17 18 19 20
3 4 4 4 4 4 4 4 4 4 5 5 6 6 6 7 7 7 7 7 8 9 9 9 10 11 11 11 12 12 12 13 14 15 16 17 17 18 19 19 20 21 21
4 4 4 5 5 4 5 5 5 6 6 6 6 7 7 8 8 8 8 8 9 9 10 10 11 12 12 13 13 13 13 14 15 16 17 18 19 20 21 21 22 22 23
5 5 5 6 6 6 6 6 6 7 7 7 7 8 8 9 9 9 9 10 11 11 11 12 13 13 13 14 15 15 16 16 17 18 19 20 21 22 23 24 25 25 26
5 6 6 7 7 8 8 8 8 8 8 9 9 9 9 10 10 10 11 11 12 13 13 13 13 14 15 16 17 17 18 19 19 20 21 22 23 24 25 25 26 27 28
6 7 7 8 8 9 9 9 9 9 10 10 10 10 11 11 12 12 13 13 14 14 15 15 15 16 17 17 18 19 20 21 22 22 23 23 24 25 26 27 27 28 29
7 8 8 8 9 9 9 10 10 10 11 11 12 12 13 14 14 15 15 16 16 16 17 17 18 18 18 19 19 20 21 22 23 23 24 25 26 26 27 28 29 29 30
9 9 9 9 10 10 11 11 11 12 12 13 13 14 14 15 15 16 16 17 18 19 19 20 20 21 20 21 22 23 24 24 24 25 25 26 27 27 29 29 29 30 30
10 10 10 10 10 11 12 13 13 13 14 14 14 14 15 15 16 16 17 18 19 20 21 21 22 22 22 23 24 24 25 25 26 26 27 28 28 28 29 29 30 30 31
11 11 11 12 13 13 14 14 14 15 15 15 16 16 16 16 17 18 18 19 20 21 22 23 23 24 24 24 25 25 26 26 27 28 28 28 29 30 30 31 32 32 33
12 12 12 12 13 14 15 15 15 16 16 17 17 17 18 19 19 19 20 20 21 22 23 24 24 24 25 25 26 26 27 27 28 28 29 30 31 31 32 33 33 34 35
12 13 14 14 15 15 16 16 17 17 17 18 18 18 19 20 20 21 21 22 23 24 25 25 25 26 26 27 27 28 28 29 30 31 31 31 32 33 33 35 36 37 37
15 15 15 16 16 16 17 17 18 18 19 19 19 20 20 21 22 23 24 25 25 26 26 26 27 28 29 29 29 30 30 30 30 31 33 33 33 34 35 36 37 38 39
16 16 17 17 18 17 18 18 19 19 20 21 21 22 22 23 24 25 26 26 27 27 27 28 28 29 29 30 30 31 31 31 32 32 33 34 35 36 36 38 39 39 39

GEFSMA_500_meanwind_198.txt.gz
Wind_Speed
3 2 2 2 3 3 2 3 3 3 3 4 5 6 6 6 7 8 8 8 9 9 9 9 10 10 12 12 12 13 13 12 12 13 14 13 14 14 14 15 15 15 14
3 2 2 2 2 2 2 2 2 2 2 3 3 5 6 5 6 7 7 8 8 8 8 9 10 10 10 11 12 13 13 13 13 13 13 14 14 14 14 14 15 15 15
3 3 2 2 2 2 2 2 1 1 1 2 2 3 4 4 4 5 7 7 8 8 8 8 9 9 9 10 10 11 13 13 12 12 13 14 14 15 16 16 15 15 15
2 3 2 2 2 2 1 1 2 1 1 1 1 2 3 3 4 5 6 6 7 7 7 7 8 8 8 9 10 11 12 12 12 13 13 13 13 14 15 16 16 15 15
2 3 2 2 2 1 1 1 2 1 1 1 0 1 2 2 3 4 4 5 5 6 6 7 7 7 8 9 10 10 10 11 12 13 12 13 13 13 14 15 15 15 15
2 2 2 2 2 2 1 1 1 1 1 1 1 1 1 1 2 2 3 4 4 5 6 6 6 7 8 8 9 9 10 10 10 11 11 11 11 12 13 14 15 15 15
2 2 2 3 2 2 2 2 2 1 1 1 1 1 2 1 2 2 2 3 4 5 6 6 6 6 7 7 7 8 8 9 9 9 10 11 10 11 11 12 13 14 14
1 2 2 2 2 2 2 2 2 2 1 1 1 1 1 1 2 2 3 3 3 4 5 5 5 6 7 7 7 7 8 8 8 9 10 10 10 10 10 11 12 13 13
1 1 2 3 3 2 2 2 2 2 2 2 2 2 2 2 2 2 3 3 4 4 5 5 6 7 7 7 7 8 9 9 9 9 10 11 11 11 11 12 13 13 14
1 1 1 2 2 2 2 2 2 2 2 2 2 2 2 3 3 2 3 3 4 5 5 5 6 6 7 8 8 9 10 11 11 11 10 11 12 13 13 13 14 15 15
1 2 1 2 2 2 2 2 2 2 2 3 3 3 3 3 3 4 4 4 5 5 6 6 7 7 8 8 9 10 11 12 12 13 12 12 12 13 15 15 15 16 17
2 2 2 1 1 1 1 1 1 2 2 3 3 3 4 4 5 5 6 6 6 7 7 8 8 8 9 9 10 11 11 12 13 13 13 13 13 14 14 16 17 18 19
2 2 2 2 2 2 2 2 2 2 3 4 4 4 5 5 5 6 7 7 7 8 8 9 9 10 10 10 11 12 13 13 13 14 14 15 15 15 16 17 18 19 20
3 3 3 3 3 3 3 3 3 4 4 5 5 6 6 6 6 6 7 8 9 9 9 9 10 11 11 12 12 13 13 14 14 15 15 16 16 17 18 19 19 20 21
4 4 3 3 3 4 4 4 5 5 5 6 6 6 6 6 7 7 7 8 8 8 9 10 11 11 12 13 14 14 14 15 16 17 17 18 19 19 20 21 22 23 24
4 4 5 5 5 5 5 5 6 6 6 6 6 7 7 7 7 7 7 8 9 10 11 12 12 12 13 14 15 16 17 17 17 18 19 20 21 22 23 24 25 26 26
4 5 5 5 5 5 6 6 6 7 7 7 7 8 8 8 8 9 10 11 11 12 13 14 14 14 15 15 16 17 18 19 20 21 22 23 24 24 25 26 26 27 28
6 6 6 6 6 6 6 7 7 7 8 8 8 9 9 10 10 11 12 13 13 14 14 15 16 16 17 17 18 19 20 20 22 22 23 25 26 27 27 28 28 29 30
7 8 7 8 8 8 8 8 9 9 9 10 10 10 11 12 13 13 14 14 15 15 16 16 17 18 19 20 21 22 22 23 24 25 26 27 27 27 28 29 30 30 31
8 9 9 9 9 9 9 10 10 10 11 12 13 13 14 14 15 15 15 16 16 17 17 17 18 20 20 21 22 23 23 25 25 26 27 28 28 28 28 29 30 31 32
9 9 10 10 11 11 12 12 12 13 13 14 14 15 15 16 16 16 17 18 18 18 19 19 20 21 22 22 23 23 25 26 26 27 28 28 29 29 30 31 31 32 32
11 11 11 11 12 12 13 14 14 14 14 14 15 15 16 17 17 18 18 19 19 20 20 20 21 22 22 23 24 25 25 26 26 27 28 29 30 31 31 31 32 32 33
12 12 12 13 13 14 14 14 14 14 14 15 16 17 18 18 18 19 19 20 20 20 21 22 22 23 24 24 25 26 27 27 27 27 28 29 30 31 32 33 33 34 35
13 13 14 14 15 15 14 14 15 15 16 17 17 18 18 18 19 20 21 21 22 22 23 24 24 25 25 26 27 27 28 28 29 30 30 31 32 33 34 35 36 36 37
14 15 14 15 15 16 16 16 16 16 17 17 18 19 19 20 21 22 22 23 24 25 26 26 26 27 28 29 29 30 30 30 31 32 32 33 33 35 36 37 37 38 39
15 15 16 16 16 17 17 18 18 18 18 19 20 21 21 22 23 23 24 25 26 27 27 28 28 29 30 30 31 31 32 32 32 33 34 35 36 36 36 38 39 40 40

GEFSMA_500_meanwind_204.txt.gz
Wind_Speed
4 3 3 2 2 2 3 3 4 4 5 5 5 6 6 7 7 6 7 8 9 9 10 10 10 10 11 12 13 13 14 14 14 14 14 14 14 14 14 14 15 15 15
4 4 2 2 2 2 3 3 4 4 4 4 5 5 6 6 6 6 7 8 8 9 9 9 10 11 12 13 13 13 14 14 15 15 15 15 15 15 15 14 15 15 16
3 3 2 2 2 2 3 3 3 3 3 4 4 4 5 5 6 6 7 7 8 8 9 9 10 10 11 12 12 13 14 14 15 15 15 16 15 16 15 15 15 15 15
2 2 2 2 2 2 3 3 3 2 2 3 3 3 4 5 6 6 6 7 7 8 8 9 9 9 10 10 11 12 13 14 14 14 14 15 15 15 15 16 15 15 15
2 2 2 2 2 2 2 2 2 2 2 2 2 2 3 4 4 5 6 6 6 7 7 7 8 8 8 9 10 11 11 12 12 12 13 13 15 15 16 16 15 15 15
2 2 2 2 2 3 2 2 2 2 2 1 2 2 2 3 3 4 4 5 6 6 6 6 7 7 8 9 10 10 11 11 11 12 12 13 14 15 15 15 15 15 15
2 2 2 2 2 2 2 2 2 2 2 2 2 2 2 2 3 3 3 4 5 6 6 5 6 7 7 8 9 9 10 10 10 11 12 13 14 15 15 15 15 15 15
2 2 2 2 1 2 2 2 2 2 2 2 2 2 2 2 3 3 4 4 4 5 5 5 6 6 7 7 8 9 9 10 11 11 12 12 13 15 15 15 15 16 16
3 2 2 2 2 2 2 2 3 3 2 2 2 2 2 3 3 4 4 5 5 5 5 6 6 7 8 8 8 9 10 11 11 11 12 12 12 14 14 15 16 16 17
3 2 2 2 2 3 3 3 3 4 3 3 3 3 3 3 3 3 4 5 5 5 6 6 7 8 8 8 8 9 10 11 12 11 12 13 13 14 14 15 16 17 18
3 3 3 3 3 4 4 4 4 4 4 4 4 4 4 4 4 4 4 5 5 6 6 7 7 8 9 9 9 10 11 12 13 13 12 13 14 14 14 15 16 17 18
3 4 4 4 4 5 4 4 4 5 4 4 4 4 5 5 5 5 5 6 6 7 7 8 9 9 10 10 11 11 12 13 14 14 13 13 14 14 15 16 16 17 18
3 3 4 4 5 5 4 4 5 5 5 5 5 6 6 6 6 6 7 7 7 8 9 10 10 11 11 12 12 13 14 14 15 14 14 14 15 16 16 16 17 18 19
3 3 3 4 4 4 4 4 5 5 5 6 6 6 7 7 7 7 8 8 9 9 10 10 11 12 12 13 13 14 15 15 16 17 17 17 17 18 18 18 19 20 20
3 3 3 3 4 4 4 5 6 5 5 6 6 7 7 7 7 7 8 9 9 9 10 11 11 12 12 13 14 15 15 16 17 18 18 19 19 19 20 20 21 22 23
4 4 4 4 4 5 5 6 6 6 6 6 7 7 7 8 9 8 9 9 10 10 11 12 13 13 14 14 15 16 17 17 18 19 19 20 21 22 22 22 23 24 25
4 5 5 5 5 6 7 7 7 7 7 8 8 8 9 9 10 9 10 11 12 13 13 14 14 15 16 17 17 18 18 18 20 20 21 21 22 22 23 24 25 26 26
5 6 6 6 6 6 7 8 8 8 8 9 9 10 10 10 11 11 12 13 13 14 15 16 16 17 17 18 19 19 20 20 21 22 23 24 24 25 25 26 26 26 27
6 6 7 7 8 8 8 8 9 9 9 10 10 11 11 12 13 14 15 15 15 16 17 17 18 18 18 19 20 20 21 22 23 23 24 24 25 26 27 27 27 28 29
7 8 8 8 9 10 10 10 10 10 10 11 12 12 13 14 15 15 16 16 17 17 18 18 18 19 20 20 21 21 22 23 24 24 25 26 27 27 28 28 29 30 31
10 10 10 10 11 11 12 12 12 12 13 13 13 14 14 15 16 16 17 17 18 18 19 20 20 20 21 21 22 23 24 25 25 26 26 27 28 28 29 30 31 32 33
11 12 12 12 12 12 13 13 13 14 14 14 15 15 15 16 17 17 18 19 19 20 20 21 21 22 22 23 24 25 25 26 27 28 28 28 29 29 31 32 33 33 34
11 12 13 13 14 14 14 14 15 15 15 15 16 16 16 17 17 18 19 20 20 21 21 22 23 23 24 25 26 26 27 27 27 28 28 29 30 32 32 33 34 34 35
13 13 13 13 14 15 15 16 16 17 17 17 17 17 17 18 19 20 21 21 22 23 24 25 25 25 26 26 27 28 28 29 29 29 30 30 31 33 34 35 35 36 37
15 15 14 14 15 16 17 18 18 18 18 19 19 19 20 21 21 21 22 23 24 25 25 26 26 27 27 28 29 29 29 30 30 31 31 32 33 34 35 36 37 38 38
16 16 16 16 17 17 18 18 18 19 19 19 20 20 21 21 22 23 24 24 25 26 26 27 27 28 28 29 29 30 30 31 32 32 33 34 35 36 36 37 38 39 39

GEFSMA_500_meanwind_210.txt.gz
Wind_Speed
3 3 4 4 4 4 5 5 5 5 5 6 7 8 8 8 9 9 10 11 11 11 11 11 11 12 12 12 13 13 13 14 13 14 15 15 15 15 15 15 16 16 16
3 3 3 3 4 4 4 4 4 5 6 5 6 7 7 8 9 10 10 10 10 10 10 10 10 11 12 12 13 13 14 14 14 14 15 16 16 15 16 16 16 16 17
2 2 2 3 3 3 3 3 3 4 5 5 6 7 7 8 8 8 9 9 10 10 10 9 10 11 11 12 13 13 13 14 15 15 15 16 16 16 16 16 16 17 17
2 2 2 2 2 2 3 3 3 3 4 4 5 5 6 7 6 7 8 9 9 9 9 10 10 11 11 12 12 12 13 14 15 15 15 16 16 16 16 17 18 18 18
2 3 2 2 1 2 2 2 3 3 3 3 3 4 5 4 4 6 7 8 9 9 10 10 11 11 11 11 11 12 13 13 13 14 14 15 15 15 16 17 19 19 18
2 3 1 1 2 1 1 2 2 3 3 2 2 3 4 3 4 5 6 7 8 8 9 10 10 10 10 10 11 11 11 12 12 12 12 14 14 15 16 18 18 18 19
2 2 1 1 1 1 1 2 2 3 3 2 3 3 2 3 3 3 5 5 6 7 8 8 9 9 9 9 9 9 10 10 11 11 12 13 15 16 17 17 17 18 18
3 2 2 2 1 1 2 1 2 3 3 3 2 3 2 3 4 4 4 5 5 6 6 6 7 7 7 8 9 9 10 11 11 11 12 13 14 16 17 17 18 18 18
4 3 3 2 2 2 2 3 3 3 3 3 3 3 3 3 4 4 4 5 5 5 5 6 6 6 7 8 9 10 11 11 11 12 13 14 14 16 17 17 18 19 19
4 3 3 3 3 3 3 3 3 3 3 3 3 4 4 4 4 5 4 5 5 5 6 6 6 7 8 9 10 11 12 12 12 13 14 15 15 16 17 18 19 19 19
4 4 4 4 4 3 3 3 4 4 4 3 3 4 4 5 5 5 5 6 6 6 7 7 7 8 9 10 11 11 12 13 13 14 15 16 16 17 18 17 18 19 20
5 4 4 4 4 4 4 4 4 4 4 4 4 4 5 5 5 6 6 6 6 7 7 8 9 9 10 10 11 12 13 14 14 15 16 16 17 17 18 18 18 19 20
4 5 4 4 4 5 4 5 5 5 5 5 5 5 5 5 5 6 6 7 8 8 9 9 10 10 10 11 12 12 13 14 15 15 16 16 17 18 19 18 18 19 20
5 5 5 4 5 5 5 5 5 5 5 5 5 5 5 6 6 7 7 8 8 9 9 10 10 11 12 12 13 13 14 15 15 16 17 17 18 18 18 19 19 20 21
5 5 5 5 5 5 5 5 5 5 6 6 5 6 6 7 7 7 8 9 9 10 10 11 11 12 13 13 14 14 14 15 16 17 18 18 18 19 19 20 21 22 23
5 4 5 5 6 6 5 5 5 5 6 6 6 6 7 8 8 9 10 10 11 11 12 12 13 14 14 14 15 15 16 17 17 18 19 20 20 20 21 21 22 23 24
5 4 4 5 5 6 5 5 6 6 6 7 7 8 8 9 9 9 10 11 12 12 12 13 14 15 16 16 17 17 18 18 19 19 20 21 21 22 22 23 23 24 25
5 5 5 5 5 5 6 6 7 7 7 7 8 9 10 10 11 11 12 12 13 13 14 15 15 16 16 17 17 18 19 19 20 21 21 21 22 23 24 25 26 26 27
7 6 6 6 6 7 7 8 8 8 9 9 10 11 11 12 13 13 14 15 15 15 16 16 17 17 17 18 18 18 19 20 21 22 22 23 24 25 25 26 27 28 28
8 7 8 8 8 8 9 10 9 10 10 10 11 12 13 14 15 15 16 16 17 17 17 17 18 18 19 20 20 21 22 23 24 24 24 25 25 26 26 27 28 28 30
8 9 9 10 10 10 10 11 11 11 12 12 13 13 14 15 15 16 16 17 17 17 17 18 18 19 20 21 22 23 24 25 26 26 26 26 26 27 27 28 29 29 30
10 11 12 12 11 12 12 12 13 13 14 14 14 14 15 15 16 16 17 17 18 18 18 18 19 20 21 21 23 24 25 25 26 27 27 27 28 29 29 29 29 30 31
12 13 14 14 14 14 14 15 15 15 15 15 15 16 16 16 17 17 18 18 18 18 19 19 20 21 22 23 24 25 25 26 27 27 28 28 29 30 31 31 32 32 33
13 13 14 15 15 16 16 16 16 16 16 16 15 16 17 17 18 18 18 18 18 19 20 21 22 22 23 24 25 26 27 28 28 29 29 30 31 32 33 33 34 34 35
14 15 15 15 16 16 16 17 17 16 16 16 16 17 17 18 18 18 18 19 19 20 21 22 23 24 25 26 27 28 28 29 30 31 31 31 32 32 33 34 35 36 37
16 16 16 16 16 16 16 17 17 16 16 17 17 18 18 18 19 19 19 20 20 21 22 23 25 26 27 27 28 29 30 31 31 31 32 33 33 33 33 34 35 37 37

GEFSMA_500_meanwind_216.txt.gz
Wind_Speed
4 5 5 5 6 6 7 7 7 8 8 9 9 9 9 10 10 10 11 11 11 12 12 12 11 11 12 11 11 12 12 12 12 12 13 13 14 14 14 14 14 14 14
4 4 4 5 6 6 6 6 7 7 8 8 8 8 9 9 9 10 10 10 10 11 11 11 12 11 11 11 11 11 13 13 13 13 13 13 13 14 15 15 15 15 15
4 4 4 4 5 5 6 6 6 6 7 7 8 8 8 8 8 8 8 8 9 10 10 11 11 11 11 11 11 11 12 13 13 13 13 13 13 13 14 14 15 16 16
5 4 4 4 4 5 5 5 5 5 6 6 6 7 7 7 7 7 8 8 8 9 10 9 10 10 10 10 11 11 11 12 12 13 13 14 14 14 15 15 15 16 17
5 4 4 4 4 4 5 5 5 5 6 5 5 5 6 6 6 6 7 8 8 8 8 9 9 9 10 10 10 10 11 11 12 12 13 14 15 15 15 15 16 16 17
4 4 4 4 4 5 5 5 5 5 6 6 5 5 5 5 5 6 6 7 7 8 8 9 9 9 10 10 11 11 11 11 12 12 12 13 14 15 15 15 16 17 17
4 4 3 3 4 4 4 5 5 5 6 5 5 5 5 5 5 5 6 6 7 7 7 8 8 8 9 9 10 11 12 12 12 12 13 13 14 14 15 16 16 17 17
4 5 4 3 4 4 4 5 5 6 6 5 5 5 5 5 5 6 6 6 6 6 6 7 7 8 9 9 9 10 10 10 10 11 11 12 13 14 15 17 17 17 18
5 5 4 4 4 4 4 4 4 5 5 5 4 4 4 5 5 7 6 6 6 6 6 6 7 8 8 8 9 10 10 10 11 11 12 13 14 15 15 16 17 18 18
5 5 5 4 3 3 4 4 5 5 5 5 6 6 6 6 5 5 5 5 5 5 6 6 7 8 8 8 9 10 10 11 11 12 13 14 15 15 16 17 17 18 19
6 5 5 4 4 4 5 5 5 5 5 6 6 7 7 7 6 5 4 5 5 5 6 6 7 7 7 7 8 9 10 11 12 13 14 14 15 16 16 17 17 18 19
6 6 5 5 4 4 5 5 5 5 6 6 7 7 7 7 7 6 6 6 6 7 8 8 8 8 8 9 9 10 11 12 13 14 15 16 16 16 17 17 17 17 18
6 6 6 5 5 6 6 6 6 6 6 7 7 7 7 7 7 7 8 8 8 9 9 9 9 10 10 10 11 11 12 13 14 14 15 16 17 17 17 18 17 18 19
6 6 6 6 7 7 7 7 7 7 7 7 7 7 7 7 8 8 8 8 9 9 9 9 10 10 11 11 12 13 13 14 14 15 16 17 17 18 18 19 19 19 20
6 6 6 7 7 7 7 7 7 8 8 8 7 7 7 8 9 9 9 9 9 10 10 11 11 12 12 13 13 14 14 15 16 17 17 18 19 19 19 20 20 20 21
7 7 7 7 7 8 7 7 7 8 8 8 8 8 8 9 9 9 10 10 10 11 12 12 12 13 14 14 15 15 16 16 17 18 19 19 20 20 21 22 22 23 23
7 7 7 7 7 7 7 7 8 8 8 8 8 9 9 9 10 10 11 11 12 12 13 14 14 14 15 16 16 17 17 18 19 20 20 21 22 22 23 24 24 24 25
7 7 7 8 7 7 8 8 8 8 9 9 9 10 10 11 11 11 12 12 13 14 14 15 15 16 16 16 17 18 18 19 20 21 22 22 23 23 24 25 25 25 26
8 8 8 8 8 8 9 9 9 10 10 11 11 12 12 12 13 13 13 14 14 15 15 16 16 16 17 17 18 19 19 20 21 21 22 23 23 24 24 25 26 27 27
9 9 9 9 9 10 10 10 11 11 12 12 13 13 13 13 14 14 14 15 15 15 16 16 16 17 17 18 19 19 20 21 22 22 23 23 24 25 26 27 27 28 28
10 10 10 10 11 11 11 12 13 13 14 14 14 13 13 14 14 15 15 15 15 16 16 17 17 18 19 19 20 21 21 22 22 23 24 25 26 27 27 28 28 29 30
12 11 11 12 12 12 13 13 14 14 14 14 15 15 15 15 15 15 16 16 16 17 18 18 19 19 21 21 21 22 22 23 24 25 26 27 28 28 28 29 30 30 31
13 13 13 14 14 14 14 15 15 15 15 15 15 16 16 16 16 16 17 17 18 19 20 20 20 21 22 22 23 23 24 24 25 27 27 28 29 29 30 30 31 32 33
15 15 15 15 15 16 16 16 16 16 16 16 17 17 17 17 17 17 18 19 20 20 20 21 21 22 23 23 24 25 25 26 27 28 29 30 30 31 31 32 32 32 33
16 16 16 16 16 17 17 17 17 17 16 16 17 17 18 18 18 19 20 20 20 20 20 21 22 22 24 24 25 26 27 27 28 29 30 31 31 31 32 32 32 33 34
17 17 17 17 17 17 17 18 18 17 17 17 18 19 19 19 19 20 20 21 21 21 21 22 22 23 24 25 26 27 28 28 29 30 31 31 32 32 32 32 33 33 34

GEFSMA_500_meanwind_222.txt.gz
Wind_Speed
5 5 6 6 6 6 6 6 6 7 7 7 8 9 9 9 9 9 10 10 11 11 11 12 13 12 12 12 12 11 12 12 12 13 13 13 13 14 14 14 15 14 14
4 5 5 6 5 5 5 5 6 6 6 7 8 9 9 9 8 8 8 9 10 10 10 11 11 12 12 12 11 12 12 13 13 13 13 14 14 14 14 14 14 15 15
4 5 5 5 6 6 5 5 5 5 6 7 7 8 8 8 8 9 8 9 9 9 10 10 10 11 11 11 11 11 12 12 13 13 13 14 14 15 15 15 15 15 16
4 4 5 5 5 5 5 5 5 5 5 5 6 7 7 7 7 7 7 6 7 7 8 9 9 10 11 10 10 11 12 12 12 13 13 13 14 15 15 16 16 16 17
4 4 4 4 5 5 5 5 5 5 4 5 6 6 6 6 7 7 7 7 6 7 7 7 7 8 9 9 10 10 11 12 12 13 13 13 13 13 14 15 16 16 16
4 4 4 4 5 4 4 5 5 5 5 5 5 5 5 6 6 6 6 7 7 7 7 8 8 8 8 9 9 10 10 11 11 12 12 12 12 13 14 15 16 16 17
4 4 4 4 4 4 4 4 4 4 4 5 5 4 5 5 5 5 5 6 6 7 7 7 7 7 7 7 8 8 9 10 10 10 11 11 12 13 14 14 15 16 16
4 4 3 3 3 4 4 4 5 4 5 5 5 4 4 4 4 5 5 5 5 5 5 6 6 6 7 7 8 8 9 9 10 10 11 11 12 13 13 14 14 15 16
4 4 3 3 3 4 4 4 5 5 4 5 5 5 5 4 4 4 5 5 4 4 4 5 5 6 6 7 7 8 8 9 10 11 11 11 12 12 12 13 14 15 16
4 4 4 4 4 4 4 4 5 5 4 4 5 5 5 4 4 4 5 4 4 4 4 5 6 6 7 7 7 8 8 9 10 10 10 11 12 12 13 14 14 15 16
4 4 4 4 4 4 4 4 5 5 5 5 5 5 4 5 5 4 5 5 5 5 5 6 6 7 8 8 8 8 8 9 9 9 10 11 12 12 13 14 14 15 16
5 5 5 4 5 5 4 4 5 5 6 5 4 4 4 5 4 5 5 5 5 6 7 8 8 8 8 8 8 8 8 8 8 9 9 10 12 13 14 15 15 15 16
5 5 6 6 6 6 5 5 5 5 6 6 5 4 4 5 5 6 6 6 6 7 7 8 8 8 7 8 8 8 8 9 9 9 10 12 13 14 15 16 17 17 17
6 6 7 6 6 6 6 6 6 6 6 6 5 5 5 6 6 6 6 7 7 7 8 8 8 8 8 9 9 9 10 10 11 11 12 13 15 16 16 17 18 19 19
7 7 7 6 6 6 6 6 6 6 6 6 6 6 6 6 5 6 6 6 7 7 7 7 8 9 9 10 11 11 12 12 13 13 14 15 15 16 17 18 19 19 20
7 7 7 7 6 7 7 6 6 6 7 7 7 7 7 7 7 7 7 7 7 7 8 9 9 10 11 11 12 13 13 14 14 15 15 16 17 18 19 20 20 21 21
7 7 8 7 7 7 7 7 7 7 8 8 8 8 8 8 8 8 9 9 9 9 10 10 11 12 12 13 13 14 14 15 15 15 16 17 18 19 20 21 21 22 22
7 7 7 7 7 7 8 8 8 8 8 8 8 9 9 9 9 9 10 10 10 10 11 12 13 13 14 14 14 14 15 15 16 17 18 19 20 21 21 22 22 24 25
8 8 7 8 8 8 8 9 9 9 9 9 9 10 10 10 10 10 10 11 11 12 13 13 14 14 15 15 15 15 16 17 17 18 19 20 21 22 23 23 24 25 26
9 9 9 9 9 10 10 10 10 10 10 11 11 11 11 11 11 11 12 12 13 14 14 14 15 15 15 15 16 17 17 18 19 19 20 22 23 24 25 25 26 26 26
10 10 11 11 11 11 12 12 11 11 11 11 12 12 12 12 13 13 13 14 14 15 15 15 16 16 16 16 17 18 19 19 20 21 23 24 25 25 26 26 26 27 27
12 12 12 12 12 12 13 13 13 13 13 13 13 13 13 13 14 14 14 15 16 16 17 17 17 17 18 18 19 19 20 21 22 22 24 24 25 25 26 27 27 27 28
13 14 14 14 14 14 14 15 15 15 15 14 14 14 14 14 14 15 16 16 17 18 18 19 19 19 20 20 21 21 22 23 24 24 24 25 26 26 27 28 29 29 28
15 15 15 15 15 16 16 17 17 17 17 17 16 16 16 16 16 17 17 17 18 18 19 19 20 20 21 21 22 22 22 23 24 24 25 26 27 27 28 29 30 30 30
16 17 17 17 17 17 17 17 17 18 18 18 17 17 17 17 17 18 18 19 19 20 20 20 21 21 22 22 22 22 22 23 25 26 26 27 28 28 29 30 30 31 31
17 18 18 18 18 18 18 18 18 18 18 19 19 19 18 18 19 19 20 20 20 21 21 21 21 22 23 23 24 24 24 25 26 27 28 29 29 30 30 31 31 31 32

GEFSMA_500_meanwind_228.txt.gz
Wind_Speed
5 5 6 6 6 6 6 6 7 7 7 8 9 10 10 10 11 11 11 11 11 11 11 12 13 13 13 13 13 13 13 13 13 13 14 15 15 15 15 15 17 17 17
5 5 6 7 6 6 6 6 6 7 8 8 8 9 10 10 10 10 11 11 11 11 11 11 12 12 12 11 12 12 12 12 12 12 13 14 15 15 15 16 16 17 18
5 5 6 7 7 7 6 6 7 7 7 8 7 8 9 10 10 10 10 10 10 10 10 11 11 11 11 11 11 12 12 12 12 12 12 13 14 14 15 16 16 17 17
5 5 6 6 6 6 6 6 6 7 7 8 8 8 9 10 10 9 9 9 9 9 9 10 10 11 11 11 11 12 12 12 13 13 13 14 14 15 15 15 16 17 17
4 5 5 5 5 6 6 6 6 6 7 7 7 7 8 8 8 8 8 8 8 8 9 9 9 10 10 11 11 12 12 12 12 12 13 13 14 14 15 15 16 17 17
4 4 4 5 5 5 6 6 6 6 6 6 6 7 7 6 6 7 7 8 8 8 8 8 8 9 10 10 10 10 11 10 11 11 11 12 13 14 15 15 15 15 16
4 3 4 4 4 5 5 6 6 6 5 5 6 6 6 6 7 7 7 7 8 8 8 8 8 9 9 10 10 9 9 9 9 10 11 11 12 13 13 14 14 14 15
4 4 4 4 4 5 5 5 5 5 5 6 6 6 6 6 7 7 7 7 7 7 7 7 7 8 9 8 8 9 9 9 9 10 11 11 11 12 12 13 14 15 15
4 4 4 4 5 5 5 5 5 5 5 5 6 6 6 6 6 6 6 6 7 7 7 7 7 7 8 7 7 8 8 9 10 10 11 11 12 12 13 13 14 15 16
5 4 5 5 5 5 5 5 6 6 6 6 6 6 6 6 6 7 7 7 7 7 7 8 8 8 8 7 7 7 8 9 10 10 11 12 13 13 13 12 13 14 15
5 5 5 6 6 6 6 6 6 6 6 6 6 6 5 6 6 7 7 7 8 8 7 8 8 8 8 7 8 8 9 9 9 10 11 12 13 13 13 12 13 14 14
7 7 6 6 6 6 6 6 6 6 6 6 6 6 6 6 6 6 7 7 8 8 9 9 9 9 8 7 7 8 9 9 10 10 11 11 12 13 14 13 14 14 15
8 8 7 7 7 7 7 7 6 6 6 6 7 7 7 7 7 6 6 7 8 8 8 9 9 9 9 9 9 9 10 10 11 11 12 13 13 14 15 14 14 15 16
8 9 8 8 8 8 8 7 7 7 7 7 7 8 8 7 7 7 7 7 8 8 8 8 9 8 9 9 10 11 11 11 12 12 12 13 13 14 15 16 17 17 17
9 9 9 9 8 8 8 8 7 7 7 7 8 9 9 8 8 8 9 8 8 9 9 9 10 10 10 10 11 12 12 12 13 13 14 14 15 16 16 17 17 18 19
10 9 9 9 9 9 8 8 8 8 8 8 9 9 9 9 10 10 10 10 10 10 10 10 10 10 11 11 12 13 13 14 14 15 15 16 17 17 17 18 19 20 21
9 9 10 10 10 10 10 10 10 10 10 10 10 10 10 10 11 11 11 10 10 10 10 10 11 11 11 12 13 14 15 16 16 17 17 18 18 19 19 20 21 22 23
9 9 10 10 10 10 11 11 11 11 11 11 11 11 11 11 11 11 12 12 11 12 12 12 12 12 13 14 15 15 16 16 16 17 18 19 19 20 21 22 23 23 25
10 10 10 11 11 11 11 12 12 12 12 12 12 12 12 13 12 12 13 13 13 13 13 13 13 14 14 15 16 16 16 17 17 18 19 20 21 22 23 24 24 25 26
11 11 11 12 12 12 12 13 13 13 13 13 13 13 13 14 14 14 14 14 14 14 14 14 14 15 16 16 17 17 18 19 19 20 21 21 22 23 24 25 25 26 27
12 12 13 13 13 13 14 14 14 14 14 14 14 14 14 15 15 16 16 16 17 16 16 16 16 16 17 17 18 19 20 20 21 21 22 23 23 24 25 26 26 27 28
13 13 14 15 15 16 16 15 15 16 15 15 15 15 16 17 17 18 18 18 18 18 18 18 19 19 18 19 20 20 21 22 22 23 23 24 24 25 26 27 27 28 29
14 14 15 15 16 16 16 16 16 17 16 16 16 17 17 18 19 19 19 19 19 19 19 20 20 20 20 21 21 22 22 23 24 24 24 25 25 26 27 28 29 30 30
14 15 15 16 16 17 17 17 17 17 17 17 18 18 19 19 20 20 20 20 21 21 22 22 22 22 22 22 23 23 23 23 24 24 25 26 27 28 29 29 30 30 30
16 16 16 16 16 17 18 19 19 19 19 19 19 20 20 20 20 20 21 21 21 22 23 24 24 24 24 24 24 24 24 24 24 25 26 26 27 28 29 29 29 29 30
18 18 17 18 18 18 19 20 20 20 21 21 21 21 21 21 21 22 22 23 22 22 23 24 24 25 25 25 25 25 25 25 26 26 27 27 28 29 29 29 29 30 30

GEFSMA_500_meanwind_234.txt.gz
Wind_Speed
7 7 7 6 7 7 7 7 7 7 8 8 9 9 9 9 10 10 12 12 13 13 13 13 13 13 12 13 14 14 14 15 16 17 18 18 18 18 18 18 18 18 18
7 6 7 6 7 7 7 8 8 8 8 8 9 9 9 9 9 10 11 12 12 13 13 12 12 12 12 12 13 14 13 13 14 16 16 17 17 17 17 17 17 16 17
6 7 6 6 6 6 7 7 8 8 8 9 9 8 8 9 10 11 11 11 12 12 12 11 11 12 12 12 12 13 13 14 14 14 14 16 16 17 16 16 16 16 16
6 7 6 5 6 6 6 6 6 7 8 8 8 8 9 9 10 11 11 11 11 11 11 11 11 12 12 12 12 12 12 13 12 12 12 14 15 15 16 16 16 16 16
5 5 6 5 6 6 6 6 6 7 8 8 9 9 9 9 9 10 10 10 10 10 10 11 11 11 11 11 11 12 13 12 12 12 12 13 14 15 16 15 16 16 16
4 4 5 5 5 6 6 6 6 6 7 8 9 9 9 9 8 8 8 9 9 9 9 9 9 9 10 11 11 11 12 11 11 11 12 12 13 14 14 15 17 17 17
4 4 4 5 5 6 6 6 6 6 6 7 8 8 9 8 8 8 8 8 9 9 9 8 8 9 9 10 10 10 10 11 11 12 11 12 13 13 14 15 16 17 17
4 4 5 5 5 6 6 6 6 6 7 6 7 8 8 8 8 7 7 7 8 8 9 8 8 8 9 9 10 9 9 10 10 11 11 12 12 13 14 14 15 16 16
5 5 5 5 5 5 5 5 6 6 7 7 7 7 7 6 6 6 6 7 7 7 8 8 8 8 8 8 9 10 10 10 10 11 11 11 12 13 14 15 15 15 16
6 6 6 6 6 5 5 6 6 6 7 7 7 6 6 6 6 5 6 6 7 7 8 8 8 8 8 8 9 9 10 10 10 10 11 11 11 12 13 14 15 15 15
6 6 6 6 6 6 6 7 7 7 6 6 7 6 6 6 6 5 6 6 6 7 8 8 8 8 8 9 9 9 10 10 10 10 10 11 11 12 12 13 14 14 15
7 7 7 7 7 7 8 8 8 7 7 6 6 6 7 6 6 6 6 6 6 7 7 8 8 8 8 9 10 10 11 11 11 11 11 11 11 12 11 12 13 14 15
7 7 7 7 8 8 8 8 8 7 7 7 7 7 8 8 8 7 7 7 7 8 8 8 8 9 9 10 10 10 11 12 11 11 11 11 12 12 13 14 14 14 15
9 9 9 8 8 9 8 8 8 8 8 8 8 8 8 8 8 8 9 9 9 9 9 9 9 9 10 10 10 10 10 11 12 12 12 12 12 12 13 14 14 15 16
10 10 10 9 9 9 9 9 9 9 9 10 10 10 10 9 9 10 10 10 10 10 11 11 10 11 11 12 11 11 12 12 13 13 13 13 14 14 14 15 15 16 17
10 10 10 10 9 9 10 10 10 10 10 11 11 12 12 11 11 11 11 11 11 12 12 12 12 12 12 13 13 13 13 13 14 14 15 15 15 16 16 17 17 18 19
10 10 10 11 11 11 11 11 12 12 12 12 13 13 13 13 12 12 13 12 12 12 13 13 13 13 13 13 13 14 14 15 15 16 16 17 17 18 18 19 19 20 21
10 11 11 12 12 13 13 13 13 14 13 13 13 14 14 14 13 13 13 13 13 13 13 13 13 14 14 14 14 15 16 16 17 18 18 18 19 19 20 20 21 21 22
11 11 11 12 12 13 13 14 14 15 15 15 15 15 15 15 15 15 14 14 15 15 15 15 15 16 16 16 16 16 17 17 18 19 19 20 20 21 22 22 22 22 23
11 12 12 12 12 13 13 14 15 15 15 15 15 15 16 16 16 16 16 16 16 16 16 16 16 17 18 18 19 19 19 19 19 20 20 21 21 22 22 23 24 24 24
12 12 13 13 13 14 14 14 15 16 16 16 16 16 16 17 17 17 17 17 17 17 18 17 17 18 19 20 20 21 21 21 21 22 22 22 23 23 23 24 25 25 25
14 14 14 14 15 15 15 15 16 16 17 17 17 17 17 18 18 19 18 18 18 19 19 19 20 20 20 21 21 22 22 22 22 22 23 23 23 24 24 24 25 25 26
16 16 16 16 16 16 16 16 16 17 17 18 18 18 18 19 20 19 19 19 19 20 20 20 21 21 21 21 22 22 22 23 23 23 23 23 24 24 25 25 25 26 26
18 18 18 17 17 17 17 17 18 19 19 18 18 19 19 20 20 20 20 21 21 21 21 22 22 22 22 23 23 23 23 23 24 24 24 24 24 25 25 25 26 26 26
19 19 19 18 18 18 19 20 20 20 20 20 20 21 21 22 21 22 22 22 23 23 23 23 23 23 23 23 23 23 24 24 24 24 24 24 24 25 25 26 26 27 28
20 20 19 18 19 19 20 21 21 21 21 22 22 22 23 23 23 23 23 23 23 23 23 24 24 25 25 25 25 25 25 24 24 24 24 24 25 25 26 26 27 28 28

GEFSMA_500_meanwind_240.txt.gz
Wind_Speed
7 7 7 7 7 6 7 7 7 7 8 8 8 9 9 9 10 10 10 11 11 12 12 12 13 14 15 15 15 15 16 16 16 17 17 18 18 17 17 17 17 17 17
7 7 7 7 7 7 7 7 7 8 8 8 8 8 9 10 10 10 10 11 11 12 12 12 12 12 13 14 13 14 14 16 16 17 18 18 19 17 17 17 17 17 17
6 6 6 7 7 7 7 7 7 8 8 8 8 9 9 10 10 10 10 10 11 11 11 11 11 11 11 12 13 13 13 13 14 15 16 17 17 17 17 16 16 16 16
5 6 6 6 6 6 6 7 7 7 8 8 8 9 9 9 9 9 10 10 10 10 10 10 10 10 10 10 11 12 12 12 13 14 14 14 14 14 14 15 15 15 15
5 5 5 5 6 6 6 6 7 7 8 8 8 9 9 8 8 9 10 10 9 9 10 10 10 11 10 10 10 11 11 12 12 13 12 12 12 12 13 14 15 15 15
5 4 4 5 5 4 5 6 6 7 8 8 8 9 9 8 9 9 9 9 9 9 10 10 10 10 10 10 10 10 10 10 11 12 12 12 12 12 13 14 15 15 15
5 5 5 6 5 5 5 6 6 7 7 8 8 8 8 8 8 9 8 8 8 9 8 9 9 9 10 9 10 10 11 11 12 12 12 12 12 12 13 14 15 15 15
5 5 6 6 6 6 7 7 7 8 7 7 7 8 8 8 8 8 8 8 8 8 8 8 8 9 9 10 10 10 10 11 12 12 12 12 13 14 14 15 15 15 15
6 6 6 6 6 6 7 7 7 8 7 7 7 7 8 8 8 8 8 7 7 7 7 8 8 8 9 9 10 10 9 10 11 12 12 12 13 14 14 14 14 15 16
6 6 6 6 6 6 7 7 7 7 7 7 8 8 8 8 7 7 7 7 7 7 8 8 9 9 8 9 10 9 9 10 11 11 11 12 12 12 13 13 14 14 15
7 7 7 7 7 7 7 7 7 7 7 7 7 8 8 8 8 7 7 7 7 8 8 8 9 9 9 10 11 10 10 11 11 11 11 11 11 11 11 12 12 13 14
8 8 8 8 8 8 8 8 8 8 8 8 8 8 8 8 8 8 8 8 8 8 8 9 10 10 11 11 12 11 11 11 11 11 10 10 11 11 12 13 13 13 13
9 9 9 9 9 9 9 10 10 9 9 9 9 9 9 9 9 9 8 8 9 9 9 10 11 10 10 11 12 12 11 11 11 11 11 11 11 12 12 13 13 13 13
9 9 10 10 10 11 11 11 11 10 10 10 10 10 10 10 10 10 9 9 10 10 11 11 11 10 10 10 11 11 12 12 12 12 12 12 12 13 13 13 14 14 14
11 10 11 11 11 11 12 12 13 12 12 12 12 11 11 11 12 12 11 11 12 12 12 11 11 11 11 11 12 12 13 13 13 13 13 14 14 14 14 14 14 14 15
11 11 11 11 11 12 13 13 13 13 13 13 13 13 13 12 12 13 13 13 13 13 13 13 13 13 13 13 13 13 13 14 14 14 15 15 14 14 14 15 15 15 16
12 12 12 13 13 13 13 13 13 14 14 14 14 14 14 15 15 15 15 15 14 14 14 14 14 15 15 15 14 14 15 15 15 15 16 15 15 16 16 16 17 17 18
12 12 12 13 13 13 12 12 12 13 14 14 14 15 15 15 15 16 16 16 16 16 16 16 15 16 16 16 16 16 16 17 17 17 17 17 17 18 18 18 19 19 19
13 13 13 14 14 14 14 14 14 14 14 15 15 16 16 17 17 17 17 17 18 18 18 18 17 18 18 18 18 18 18 18 18 18 18 19 19 19 20 20 20 20 21
15 15 15 16 15 16 16 16 16 16 16 17 17 17 18 18 19 19 19 19 19 19 19 19 19 19 19 20 20 20 20 19 20 20 20 20 21 21 21 21 21 21 22
17 17 17 17 17 17 18 18 18 18 18 18 19 19 19 20 20 20 20 20 20 20 21 21 21 21 21 21 21 22 22 21 21 21 22 22 22 22 23 22 22 22 23
18 18 18 18 19 18 18 19 19 19 19 19 19 20 20 21 21 21 21 21 22 22 22 23 23 22 22 22 23 23 23 23 23 23 23 24 24 23 23 23 24 24 24
19 19 19 19 19 19 20 20 21 21 20 20 20 21 21 22 22 22 22 22 22 23 23 24 24 24 23 24 24 24 24 23 23 24 24 24 24 24 24 23 24 24 25
20 21 21 20 20 21 21 22 22 22 22 22 23 22 22 23 23 23 23 23 24 24 24 25 25 24 24 24 24 24 24 24 24 23 24 23 23 23 22 23 24 25 25
21 22 22 21 21 22 22 22 23 23 23 23 23 24 24 24 24 24 24 25 25 25 25 25 25 25 25 25 26 25 25 25 25 24 25 25 24 23 23 23 24 25 26
22 23 22 22 23 23 23 23 24 24 24 24 24 24 24 25 25 25 26 26 26 26 26 26 26 26 27 27 27 26 26 26 26 25 25 25 24 24 24 24 25 26 26

GEFSMA_500_meanwind_246.txt.gz
Wind_Speed
5 5 6 6 5 6 7 8 8 8 8 7 7 8 8 8 9 9 9 9 10 10 10 11 11 12 12 12 13 14 14 15 16 16 16 16 17 17 17 18 18 17 17
5 5 5 6 5 6 6 7 7 7 8 8 9 9 9 8 9 9 9 10 10 9 10 11 11 12 12 13 13 13 14 14 14 15 16 16 17 18 18 18 18 18 17
4 5 5 5 6 6 6 6 6 7 7 8 9 9 9 9 9 9 9 9 9 10 10 11 11 11 12 13 12 13 13 14 14 14 14 15 16 17 17 17 17 17 16
4 4 4 4 5 5 6 6 6 7 7 7 7 8 8 9 8 9 8 9 9 9 9 10 10 10 11 11 11 11 12 12 13 13 13 14 15 15 16 17 17 16 17
3 3 3 4 4 5 5 5 5 5 6 6 6 6 7 8 8 8 8 8 9 9 9 9 9 9 10 10 10 10 10 11 11 12 12 12 13 14 15 15 16 16 16
3 3 3 4 4 4 4 4 5 5 5 5 5 6 6 6 7 7 7 7 8 8 9 9 9 9 9 10 10 10 10 10 11 11 11 12 12 12 13 13 14 15 16
3 4 4 4 4 5 5 5 5 6 6 6 5 5 6 6 7 7 7 7 8 8 9 9 9 9 9 9 9 9 9 10 10 10 11 12 12 11 11 13 14 15 15
4 4 4 4 5 5 5 5 5 5 5 5 5 5 5 6 7 7 7 7 7 8 8 9 9 9 9 9 9 9 9 9 9 11 12 12 12 12 11 12 13 14 14
5 5 5 5 5 6 6 6 6 6 6 5 6 6 6 7 7 7 7 6 7 7 7 8 8 8 9 9 9 9 9 10 11 11 12 12 12 13 12 12 12 12 13
5 5 6 6 6 6 7 7 7 7 6 6 7 7 7 7 7 8 7 7 7 7 7 7 7 8 9 10 10 9 9 10 10 11 12 12 12 12 11 11 11 11 12
5 6 6 6 6 6 6 7 7 8 8 8 8 8 7 7 7 7 8 8 8 8 8 8 8 8 9 10 9 9 10 10 11 10 11 10 9 9 10 10 11 12 12
6 6 7 7 7 7 7 8 8 8 9 9 9 8 8 8 8 8 8 8 9 9 9 9 9 9 10 10 11 10 10 11 11 10 9 9 9 9 10 11 12 13 13
7 7 8 8 8 8 9 9 9 10 10 10 10 9 9 10 10 10 9 9 10 10 10 10 10 11 11 11 11 11 11 11 10 10 10 10 11 11 12 12 12 13 13
8 8 8 9 9 9 10 10 10 11 11 11 11 11 10 11 11 11 11 11 11 11 11 12 12 11 11 11 11 11 11 11 11 11 11 12 12 13 13 13 14 14 14
10 10 9 10 11 11 11 11 11 11 11 12 12 12 12 12 12 12 12 13 12 12 12 13 13 13 12 12 12 12 11 12 12 12 12 13 13 14 14 14 15 15 15
12 12 11 11 11 11 11 11 12 12 12 12 13 13 13 13 13 13 13 14 14 13 14 13 14 14 14 14 13 13 13 13 13 14 14 15 15 15 15 15 16 16 17
12 12 12 12 12 11 11 12 12 12 12 13 13 14 15 15 15 15 15 15 15 15 15 15 15 15 15 15 14 14 14 15 16 16 16 16 16 17 17 17 18 18 18
13 13 13 12 13 13 13 14 14 14 14 14 15 15 15 16 17 17 17 16 16 16 16 16 16 16 17 17 17 17 17 18 18 18 17 18 18 19 19 19 19 19 20
14 14 14 14 14 14 15 16 16 16 16 16 16 16 17 17 18 18 18 17 17 17 17 17 18 18 19 19 19 20 20 20 20 20 20 20 21 21 21 21 21 21 21
14 15 15 15 15 16 17 17 18 18 17 17 17 18 18 18 19 19 19 19 18 19 19 19 19 20 21 21 21 21 22 22 22 21 22 22 22 23 23 22 22 22 22
15 16 15 16 16 17 18 18 19 19 18 18 18 19 19 20 20 21 20 20 20 21 21 21 21 22 22 22 23 23 23 23 23 23 23 23 23 23 23 23 22 22 23
16 16 16 17 17 18 18 19 19 19 19 20 20 20 20 21 21 22 22 22 22 22 23 23 23 23 24 24 24 24 24 24 24 24 24 23 23 23 23 23 23 22 23
17 17 17 18 18 19 19 19 20 20 20 20 21 21 21 22 23 22 23 23 23 24 24 24 24 25 25 26 26 26 26 25 25 24 24 23 23 23 24 23 23 23 24
16 17 18 18 19 19 19 20 20 20 21 21 22 22 23 23 23 23 23 24 24 25 25 26 26 26 27 27 27 27 27 26 25 25 25 25 25 24 24 24 24 25 25
18 18 18 19 19 19 20 20 21 21 22 22 23 23 23 23 23 24 24 25 25 25 26 26 27 27 27 27 27 27 27 26 26 26 26 26 26 25 25 25 25 25 25
19 19 20 20 20 21 21 22 22 22 22 23 23 24 24 24 24 24 25 26 26 26 26 27 27 26 26 26 26 26 27 26 26 27 27 27 27 26 25 25 26 26 27

GEFSMA_500_meanwind_252.txt.gz
Wind_Speed
6 7 8 8 8 8 9 9 9 9 10 10 10 10 10 10 10 10 9 9 10 10 10 9 10 11 12 13 14 13 14 14 14 15 16 16 16 16 16 17 17 16 16
6 7 7 7 7 7 8 9 9 9 10 9 9 10 10 10 10 10 10 10 10 10 10 10 11 12 13 13 14 14 14 15 15 15 15 15 15 16 17 16 16 17 17
6 5 5 5 5 6 7 8 8 8 8 9 9 9 9 9 10 9 9 10 10 10 11 11 11 12 12 13 14 14 15 16 16 16 15 15 15 15 15 16 17 17 17
4 5 5 6 6 5 5 5 6 6 7 8 8 8 8 8 8 9 9 10 10 11 11 11 11 12 12 13 13 13 14 15 15 14 15 16 16 15 15 16 16 17 17
3 4 5 5 5 5 5 5 6 6 7 8 8 8 8 8 8 9 9 9 10 10 11 11 11 11 12 12 12 13 13 13 13 13 14 14 15 15 16 16 17 17 17
3 3 4 4 5 5 6 5 6 6 6 7 8 8 8 8 8 9 9 9 9 9 10 11 11 11 11 12 12 12 12 12 12 12 13 14 13 13 14 15 17 17 17
4 4 4 4 5 5 6 6 6 6 6 7 7 8 8 8 9 9 9 9 9 9 9 9 9 10 10 11 11 12 12 12 13 13 13 13 13 13 14 14 15 15 15
5 5 5 5 5 6 6 7 6 6 7 7 7 7 8 8 8 8 9 9 9 9 9 10 10 10 11 11 11 11 12 13 13 13 13 14 13 13 13 13 13 13 13
6 6 6 6 5 6 6 7 7 7 7 7 7 7 7 8 8 9 9 9 10 10 10 11 11 11 11 12 12 11 12 12 12 13 13 14 14 14 14 13 12 11 12
6 6 6 6 6 6 6 7 7 7 8 8 9 9 9 10 10 10 10 10 11 11 11 11 11 12 13 13 13 13 13 13 13 14 15 15 15 15 14 13 12 12 12
7 7 7 7 7 8 8 8 8 8 9 9 10 10 10 10 10 10 10 11 12 12 12 12 12 13 13 13 13 13 14 15 15 15 15 15 15 15 14 13 12 12 12
8 8 8 8 9 9 9 10 10 9 10 10 11 11 11 11 11 11 11 12 12 12 13 13 13 13 13 14 14 14 15 16 15 15 15 14 13 13 13 12 12 13 13
9 9 9 9 10 10 10 11 11 11 11 11 11 12 12 12 12 13 13 14 14 13 14 14 14 14 14 14 15 15 15 16 15 15 14 14 13 12 12 12 13 13 14
11 11 11 11 11 11 11 12 12 12 12 12 13 13 13 13 13 14 14 14 14 14 14 14 15 15 15 15 15 15 15 15 15 15 15 14 14 14 14 14 14 14 15
12 13 13 13 13 13 13 13 13 13 13 14 14 14 15 15 15 15 15 15 15 15 15 15 15 16 16 16 17 17 17 16 15 15 15 15 15 15 15 15 16 16 16
13 14 14 14 14 14 14 14 14 15 14 15 15 16 16 16 17 17 17 16 17 17 16 16 17 17 17 17 17 17 17 17 16 16 16 17 17 16 16 16 17 17 18
15 15 15 15 15 14 14 15 15 15 15 16 16 17 17 18 18 18 18 18 18 18 17 17 18 18 19 19 19 18 18 18 17 17 17 18 18 18 17 18 19 19 19
16 15 15 15 15 15 16 16 16 17 17 17 17 17 18 18 18 18 19 19 19 19 19 19 19 19 19 19 19 19 20 19 19 19 19 19 19 20 20 20 20 20 20
15 15 15 15 16 16 17 17 17 17 18 18 18 18 18 18 18 18 19 19 20 20 20 21 20 20 20 20 20 20 20 20 21 21 20 20 21 21 21 21 21 22 22
16 16 15 15 16 17 17 18 18 19 19 19 19 19 19 19 19 19 19 20 21 21 21 21 21 21 21 21 21 21 22 22 22 22 22 23 23 22 22 23 23 23 23
17 17 17 16 16 17 17 18 19 19 19 20 20 19 19 19 20 21 21 21 21 22 22 22 22 22 22 22 22 23 23 24 24 24 24 25 24 24 24 24 24 24 24
18 18 18 17 17 17 18 19 19 19 19 19 19 20 20 21 21 22 22 23 22 23 23 23 23 23 23 23 24 24 24 25 25 26 26 26 26 25 25 25 25 25 25
18 18 18 18 19 19 18 18 19 19 19 19 20 20 21 22 22 23 23 23 24 24 24 24 24 24 25 25 25 26 26 26 25 26 26 25 25 25 25 25 25 26 26
19 19 19 18 19 19 19 19 19 20 20 20 21 21 22 22 23 23 24 24 24 25 25 25 26 26 26 26 27 27 27 26 26 25 25 25 25 25 25 25 25 26 26
19 20 20 20 20 20 21 21 21 21 21 21 21 22 23 23 24 24 25 26 26 26 26 27 27 27 27 27 27 27 27 26 26 26 26 26 26 26 26 26 26 26 27
20 20 20 20 20 21 21 21 22 21 21 22 23 23 24 24 25 26 26 27 27 27 27 27 27 27 27 28 28 28 27 27 27 26 27 27 27 27 27 27 28 28 29

GEFSMA_500_meanwind_258.txt.gz
Wind_Speed
8 8 9 10 11 10 10 10 10 10 9 9 10 10 10 10 10 10 10 11 10 10 11 11 11 11 11 12 13 14 14 15 15 15 15 15 15 16 16 16 17 17 17
8 8 8 9 9 10 10 10 10 10 10 10 10 9 9 9 10 9 9 9 9 10 10 10 11 11 12 12 13 13 14 15 15 15 15 16 16 16 16 16 16 17 17
7 7 8 8 8 9 9 10 9 9 9 9 9 9 9 9 9 9 9 10 10 10 11 10 10 11 11 11 12 12 13 14 14 15 15 15 15 16 16 16 17 17 17
5 6 6 7 7 8 8 9 9 8 9 9 9 9 9 9 9 10 10 10 11 11 11 10 10 10 11 11 11 11 11 12 12 13 13 13 14 14 15 16 16 16 16
5 5 6 6 6 7 7 8 8 9 9 9 9 9 10 10 10 10 10 10 10 10 10 10 10 10 10 10 10 10 11 11 11 12 12 13 13 14 15 15 16 15 15
5 6 6 6 6 7 8 8 8 9 9 9 9 10 10 10 10 10 10 10 10 10 10 10 10 10 10 10 10 11 11 11 12 11 12 12 12 13 14 14 14 15 15
6 6 6 6 6 7 7 8 8 9 9 9 9 10 10 11 11 10 11 10 11 11 11 11 11 11 11 12 11 11 12 12 12 12 13 13 13 14 14 14 15 15 15
7 7 7 6 7 7 8 8 8 9 10 10 10 10 10 11 11 11 11 11 11 11 12 12 12 12 12 13 12 12 13 13 13 14 14 14 14 15 15 16 16 16 15
8 8 8 8 8 8 8 8 8 9 9 10 10 10 10 10 11 11 12 12 12 12 12 13 13 13 13 14 14 13 13 14 15 15 15 15 15 16 16 16 16 15 15
10 10 10 9 9 9 9 9 9 9 9 10 11 11 11 11 11 12 12 12 13 13 13 13 14 14 14 14 14 14 15 16 16 16 16 16 17 17 17 17 16 15 14
10 11 10 10 10 11 10 10 10 10 11 11 11 11 11 12 12 12 13 12 13 13 14 14 15 15 15 15 16 16 16 17 17 17 18 17 17 17 17 17 16 15 14
10 10 11 11 11 11 11 11 11 12 12 12 12 12 12 13 13 13 14 14 14 14 14 15 15 16 16 16 16 16 17 17 17 18 18 18 17 17 17 17 17 16 15
11 11 11 12 12 12 11 11 12 12 12 13 13 13 14 14 14 14 14 15 15 15 15 15 16 16 16 16 16 16 17 17 18 18 18 18 17 17 17 17 16 15 15
12 12 12 12 12 12 12 12 13 13 13 13 14 14 15 15 15 15 15 16 16 16 16 16 16 16 17 17 17 17 17 18 18 18 18 18 17 17 17 15 15 14 14
14 14 14 14 14 14 13 13 13 13 14 14 15 15 15 16 16 16 17 16 16 16 17 17 17 17 17 18 18 18 18 18 19 18 18 18 18 17 17 15 15 15 16
15 15 15 15 15 14 14 14 14 14 15 16 17 17 17 17 17 18 18 18 18 18 17 17 17 18 18 18 18 19 19 19 19 19 19 19 19 18 18 17 17 17 17
15 16 16 15 15 15 15 14 15 15 15 16 17 17 18 18 18 18 18 19 19 18 18 18 19 19 19 19 19 19 19 20 20 20 20 20 20 20 19 18 18 18 18
15 15 15 15 15 15 15 15 15 16 16 16 16 17 17 18 18 19 19 19 20 20 20 19 20 20 20 20 20 20 21 21 21 21 21 21 21 21 20 20 20 20 21
16 16 15 15 15 15 15 16 17 17 16 16 16 16 17 17 18 19 19 20 20 21 21 21 21 21 21 21 21 21 22 22 22 22 22 22 22 22 21 22 22 23 22
16 16 16 16 16 16 17 17 17 17 16 16 17 17 17 17 18 19 19 20 21 21 22 22 22 22 22 22 22 22 23 23 23 23 23 23 23 23 23 23 23 23 23
16 16 16 17 17 17 18 18 18 17 17 17 17 18 18 18 18 20 20 20 21 22 22 23 22 22 23 23 23 23 24 24 24 24 24 24 24 24 25 24 24 24 24
17 17 17 17 17 18 18 19 19 19 19 19 18 19 19 19 20 21 21 22 23 23 23 24 24 24 24 24 25 25 25 25 25 25 25 25 25 25 26 26 25 25 25
18 18 18 18 18 19 19 20 20 20 20 19 19 20 20 20 21 21 22 23 23 24 24 25 25 25 25 25 25 26 26 26 26 26 26 26 26 26 26 26 26 27 26
19 18 18 19 19 19 20 20 20 19 19 19 19 20 21 21 21 22 22 23 23 24 24 25 25 25 25 25 26 26 26 26 26 26 27 27 27 27 27 27 27 27 27
20 20 19 20 20 21 21 21 21 20 20 20 21 21 21 22 22 23 23 23 24 24 25 25 25 25 26 26 26 27 27 27 27 27 28 28 27 27 28 28 28 28 28
21 21 21 21 22 22 22 22 22 21 21 22 22 23 23 23 24 24 24 25 25 25 25 25 26 26 27 27 27 28 28 28 28 28 29 29 29 28 28 28 28 29 30

GEFSMA_500_meanwind_264.txt.gz
Wind_Speed
8 8 9 10 10 10 10 9 9 10 11 11 11 11 10 10 10 10 10 10 11 11 10 11 11 12 12 12 13 13 13 13 13 13 13 13 12 12 13 13 13 13 13
7 8 8 9 9 9 9 9 9 10 10 11 11 11 10 9 9 9 9 9 9 10 11 10 10 11 11 12 12 13 13 12 13 13 13 13 13 13 13 13 13 14 14
7 8 8 8 8 8 8 9 9 9 9 9 9 9 10 10 10 9 9 9 10 10 10 10 10 11 11 11 11 11 11 12 13 12 13 13 14 14 14 14 14 14 14
8 8 8 8 8 8 8 9 9 9 9 9 8 8 9 10 10 9 9 10 10 10 10 10 11 11 11 11 10 10 10 11 11 11 11 12 12 13 14 14 14 15 15
8 8 8 8 8 8 8 8 9 9 9 9 9 9 9 9 9 9 10 10 10 11 11 11 11 11 11 11 11 11 11 11 11 11 11 11 11 12 12 12 13 14 14
8 8 8 8 8 8 9 9 9 9 10 9 9 10 10 9 9 9 10 11 11 12 12 12 12 12 12 11 11 12 12 11 11 11 11 11 12 13 13 13 13 13 14
8 8 8 8 8 9 9 9 10 10 10 10 10 10 10 10 10 11 11 11 12 12 12 12 12 12 12 13 13 12 12 12 12 12 12 13 13 14 14 14 14 14 15
8 8 9 9 9 9 10 10 10 10 10 11 11 11 11 11 12 12 12 12 12 12 12 12 13 13 13 13 14 14 14 14 14 14 14 14 14 15 15 15 15 15 16
9 9 9 10 10 10 11 12 12 12 11 12 12 12 12 13 13 13 13 13 13 13 13 13 14 14 14 14 14 14 15 15 15 16 16 16 16 16 16 15 16 16 16
10 10 10 10 11 11 12 12 13 13 12 12 13 13 14 14 15 14 14 14 14 14 14 14 14 15 15 15 15 16 15 16 16 15 15 15 15 16 16 16 16 16 16
11 11 11 11 11 11 12 13 13 13 13 13 13 14 15 15 15 15 15 15 15 14 15 15 15 15 15 15 16 16 15 15 16 17 17 17 17 17 17 17 17 16 16
12 12 13 13 12 12 12 12 13 13 14 14 14 15 15 15 15 15 15 15 15 15 15 15 16 15 15 15 15 15 15 15 15 16 17 18 18 18 17 16 16 16 16
14 14 14 14 14 13 13 13 14 14 14 15 15 16 16 16 15 15 16 16 16 16 16 16 16 16 15 15 15 15 15 15 16 17 17 18 18 17 16 16 17 17 16
15 15 15 14 14 14 15 15 15 15 16 16 16 16 16 16 16 16 16 16 17 17 17 17 16 16 16 16 16 16 17 17 18 18 18 18 17 17 17 17 17 17 17
14 15 15 15 15 15 16 16 16 15 15 15 16 16 16 16 17 17 17 17 16 17 17 17 17 17 17 17 17 17 18 18 19 19 18 19 18 18 18 18 18 18 18
14 15 15 17 16 16 16 15 15 14 14 15 15 15 16 17 17 17 17 17 17 18 18 18 19 19 19 19 19 19 19 19 19 19 19 19 19 19 19 18 19 18 18
16 16 17 17 17 16 16 15 15 15 15 15 16 16 16 17 18 18 19 19 19 18 19 19 20 21 21 21 21 21 20 20 20 20 20 20 20 20 19 20 20 18 18
17 17 17 17 17 16 16 15 15 15 16 17 17 17 17 17 17 18 19 19 19 19 19 19 20 21 22 22 22 22 22 22 21 21 21 21 21 21 21 21 21 20 19
18 17 17 17 17 17 16 16 17 16 16 17 17 17 17 18 18 18 18 18 19 20 20 20 21 21 22 22 22 22 22 22 22 22 22 22 22 22 22 22 21 21 20
17 18 18 18 18 18 17 17 18 18 17 17 18 18 18 18 18 19 19 20 20 21 21 21 22 23 23 23 23 23 23 23 23 22 22 22 23 23 23 22 23 22 21
19 19 19 18 18 18 18 18 18 18 18 18 19 19 19 19 19 20 20 21 22 22 22 22 23 23 23 23 23 22 23 23 23 23 23 24 24 24 24 23 24 24 24
20 19 19 19 19 19 19 20 20 19 19 19 20 20 20 20 20 21 21 22 22 23 23 23 23 23 23 23 22 23 23 24 24 24 24 24 24 24 24 24 25 25 26
20 19 20 20 20 20 20 20 20 20 21 21 21 21 21 21 21 21 22 22 22 23 23 23 23 23 23 23 23 23 24 24 24 25 25 25 25 25 25 25 26 26 26
21 20 21 21 21 21 22 21 22 22 22 22 21 21 21 21 22 22 22 23 23 23 23 24 24 24 24 24 24 24 25 25 26 26 26 26 26 26 26 27 27 27 27
22 22 21 22 22 23 23 23 23 24 24 23 22 22 22 22 22 23 24 24 24 24 25 25 25 25 24 25 25 26 26 27 26 26 27 27 27 28 28 28 28 28 28
22 22 22 23 23 24 24 24 25 25 24 24 23 23 23 24 24 24 25 25 26 26 26 26 26 25 25 26 26 26 27 27 27 28 28 28 29 29 29 29 30 30 30